EST,Max TemperatureF,Mean TemperatureF,Min TemperatureF,Max Dew PointF,MeanDew PointF,Min DewpointF,Max Humidity, Mean Humidity, Min Humidity, Max Sea Level PressureIn, Mean Sea Level PressureIn, Min Sea Level PressureIn, Max VisibilityMiles, Mean VisibilityMiles, Min VisibilityMiles, Max Wind SpeedMPH, Mean Wind SpeedMPH, Max Gust SpeedMPH,PrecipitationIn, CloudCover, Events, WindDirDegrees
2013-11-1,69,64,60,66,63,59,100,90,78,29.92,29.77,29.67,10,10,5,20,11,36,0.19,6,Rain,216
2013-11-2,68,59,50,59,47,34,100,70,30,29.97,29.80,29.72,10,9,2,9,3,17,0.00,3,Rain,278
2013-11-3,62,48,35,37,36,32,100,69,34,30.39,30.18,29.97,10,10,10,14,2,21,0.00,1,,343
2013-11-4,53,42,32,34,31,28,100,72,38,30.59,30.52,30.41,10,10,10,12,3,,0.00,0,,46
2013-11-5,57,45,33,46,38,30,93,74,58,30.59,30.52,30.46,10,10,5,8,4,,0.00,6,,21
2013-11-6,69,55,41,54,47,39,100,80,49,30.46,30.32,30.14,10,10,7,7,1,,0.00,1,,131
2013-11-7,68,55,41,61,48,30,100,76,42,30.14,30.04,29.96,10,8,0,13,3,23,0.00,5,Fog-Rain,289
2013-11-8,53,40,28,32,27,23,93,59,30,30.35,30.27,30.14,10,10,10,12,4,21,0.00,0,,322
2013-11-9,55,40,26,34,29,25,100,70,33,30.40,30.30,30.19,10,10,10,12,2,10,0.00,0,,217
2013-11-10,69,51,33,36,31,23,93,46,23,30.27,30.17,30.07,10,10,10,15,5,25,0.00,0,,289
2013-11-11,59,44,28,32,29,25,93,61,29,30.37,30.27,30.15,10,10,10,8,3,,0.00,0,,174
2013-11-12,55,44,32,39,30,14,93,67,41,30.46,30.20,30.05,10,10,10,18,4,26,0.00,4,Rain-Snow,7
2013-11-13,42,32,23,21,17,14,93,57,31,30.55,30.49,30.45,10,10,10,15,4,22,0.00,0,,342
2013-11-14,59,39,19,27,21,18,100,60,20,30.47,30.40,30.33,10,10,7,13,3,20,0.00,0,,221
2013-11-15,60,44,28,46,34,23,100,65,33,30.36,30.29,30.23,10,10,7,9,2,,0.02,3,Rain,208
2013-11-16,59,52,46,55,52,46,100,98,88,30.30,30.27,30.25,10,6,0,6,1,,0.03,8,Fog-Rain,68
2013-11-17,64,58,53,64,58,54,100,95,83,30.26,30.10,29.91,10,6,0,10,2,18,0.00,7,Fog-Rain,182
2013-11-18,69,60,50,66,47,28,100,64,26,30.00,29.90,29.82,10,10,4,16,7,23,0.06,3,Rain,287
2013-11-19,53,44,35,30,28,25,81,52,35,30.35,30.17,30.00,10,10,10,14,4,23,0.00,0,,11
2013-11-20,50,42,33,36,30,27,93,65,43,30.48,30.43,30.34,10,10,7,13,7,17,0.00,2,,41
2013-11-21,53,45,37,43,38,34,100,77,62,30.53,30.47,30.42,10,10,10,7,3,,0.00,7,,15
2013-11-22,66,54,41,59,50,41,100,82,68,30.42,30.26,30.10,10,10,10,13,2,20,0.00,7,Rain,237
2013-11-23,60,50,41,59,37,14,100,58,29,30.20,30.12,30.07,10,10,10,14,5,22,0.00,3,Rain,325
2013-11-24,39,29,19,21,8,1,80,42,25,30.56,30.42,30.21,10,10,10,15,9,25,0.00,0,,342
2013-11-25,41,28,14,19,10,5,100,52,23,30.59,30.50,30.39,10,10,10,8,1,,0.00,1,,188
2013-11-26,60,46,32,61,34,10,100,86,35,30.39,30.03,29.63,10,7,2,12,4,23,0.68,8,Rain,65
2013-11-27,44,37,28,45,34,18,100,88,55,30.17,29.75,29.53,10,8,1,15,5,24,0.43,6,Rain,315
2013-11-28,41,31,21,27,19,14,100,66,39,30.49,30.38,30.17,10,10,10,6,2,,0.00,0,,302
2013-11-29,46,34,23,28,24,21,100,73,39,30.67,30.56,30.48,10,10,10,12,2,17,0.00,0,,31
2013-11-30,44,35,26,30,26,21,100,78,53,30.67,30.56,30.39,10,10,10,8,3,9,0.00,0,,30